When you browse on this site, cookies collect data to enhance your experience and personalize the content and advertising you see.
Visit our Privacy Policy to learn more. By continuing to use the site, you agree to this use of cookies and data.
  • în România
  • Lista ţărilor
  • Pe 7 zile
  • Temperatura apei
  • Meteo pe hartă
  • Widget-uri
  • user-avatar
    Intrare

    Meteo pe oră la Newport

    Astăzi, 25 Februarie, Marţi

    Timp Temperatura Precipitaţii Vânt Presiune Umiditate
    00:00 +2°C° 0 mm 8 m/s 753 mmHg 86%
    01:00 +2°C° 0.1 mm 8 m/s 753 mmHg 86%
    02:00 +2°C° 0.1 mm 8 m/s 752 mmHg 85%
    03:00 +2°C° 0.1 mm 8 m/s 752 mmHg 84%
    04:00 +2°C° 0.3 mm 9 m/s 751 mmHg 84%
    05:00 +2°C° 0.3 mm 9 m/s 751 mmHg 83%
    06:00 +3°C° 0 mm 7 m/s 751 mmHg 85%
    07:00 +2°C° 0.1 mm 8 m/s 750 mmHg 86%
    08:00 +2°C° 0.1 mm 8 m/s 750 mmHg 86%
    09:00 +2°C° 0.1 mm 8 m/s 750 mmHg 87%
    10:00 +3°C° 0.4 mm 9 m/s 749 mmHg 81%
    11:00 +3°C° 0.4 mm 9 m/s 749 mmHg 75%
    12:00 +5°C° 0 mm 8 m/s 748 mmHg 69%
    13:00 +3°C° 0.8 mm 10 m/s 748 mmHg 73%
    14:00 +2°C° 0.8 mm 11 m/s 747 mmHg 77%
    15:00 +2°C° 0.8 mm 12 m/s 746 mmHg 81%
    16:00 0°C° 0.2 mm 12 m/s 746 mmHg 80%
    17:00 0°C° 0.2 mm 12 m/s 746 mmHg 79%
    18:00 -1°C° 0.2 mm 11 m/s 747 mmHg 78%
    19:00 -1°C° 0.2 mm 11 m/s 747 mmHg 79%
    20:00 -1°C° 0.2 mm 11 m/s 747 mmHg 79%
    21:00 -2°C° 0.2 mm 10 m/s 748 mmHg 80%
    22:00 -2°C° 0.1 mm 10 m/s 748 mmHg 80%
    23:00 -2°C° 0.1 mm 10 m/s 748 mmHg 80%

    Mâine, 26 Februarie, Miercuri

    Timp Temperatura Precipitaţii Vânt Presiune Umiditate
    00:00 -3°C° 0.1 mm 10 m/s 749 mmHg 79%
    01:00 -2°C° 0.1 mm 11 m/s 749 mmHg 81%
    02:00 -2°C° 0.1 mm 11 m/s 749 mmHg 83%
    03:00 -1°C° 0.1 mm 11 m/s 750 mmHg 84%
    04:00 -2°C° 0 mm 11 m/s 750 mmHg 83%
    05:00 -2°C° 0 mm 11 m/s 751 mmHg 81%
    06:00 -2°C° 0 mm 11 m/s 752 mmHg 79%
    07:00 -1°C° 0 mm 11 m/s 752 mmHg 78%
    08:00 -1°C° 0 mm 11 m/s 753 mmHg 76%
    09:00 +1°C° 0 mm 11 m/s 754 mmHg 74%
    10:00 +2°C° 0 mm 11 m/s 754 mmHg 69%
    11:00 +2°C° 0 mm 10 m/s 755 mmHg 65%
    12:00 +3°C° 0 mm 9 m/s 756 mmHg 61%
    13:00 +3°C° 0 mm 9 m/s 756 mmHg 62%
    14:00 +4°C° 0 mm 8 m/s 756 mmHg 63%
    15:00 +4°C° 0 mm 8 m/s 756 mmHg 64%
    16:00 +3°C° 0 mm 7 m/s 755 mmHg 69%
    17:00 +2°C° 0 mm 6 m/s 755 mmHg 74%
    18:00 +1°C° 0 mm 6 m/s 755 mmHg 79%
    19:00 +1°C° 0 mm 6 m/s 754 mmHg 80%
    20:00 +1°C° 0 mm 5 m/s 754 mmHg 81%
    21:00 +1°C° 0 mm 5 m/s 753 mmHg 83%
    22:00 +2°C° 0.2 mm 5 m/s 752 mmHg 86%
    23:00 +2°C° 0.2 mm 6 m/s 751 mmHg 90%

    Poimâine, 27 Februarie, Joi

    Timp Temperatura Precipitaţii Vânt Presiune Umiditate
    00:00 +2°C° 0.2 mm 6 m/s 750 mmHg 93%
    01:00 +2°C° 1.3 mm 6 m/s 748 mmHg 95%
    02:00 +1°C° 1.3 mm 6 m/s 746 mmHg 96%
    03:00 +1°C° 1.3 mm 5 m/s 744 mmHg 98%
    04:00 +1°C° 2.2 mm 6 m/s 743 mmHg 97%
    05:00 0°C° 2.2 mm 7 m/s 742 mmHg 97%
    06:00 0°C° 2.2 mm 8 m/s 741 mmHg 97%
    07:00 0°C° 0.2 mm 9 m/s 743 mmHg 95%
    08:00 0°C° 0.2 mm 10 m/s 744 mmHg 94%
    09:00 -1°C° 0.2 mm 11 m/s 745 mmHg 92%
    10:00 +1°C° 0 mm 11 m/s 747 mmHg 88%
    11:00 +1°C° 0 mm 10 m/s 749 mmHg 84%
    12:00 +1°C° 0 mm 10 m/s 750 mmHg 81%
    13:00 +2°C° 0 mm 10 m/s 751 mmHg 79%
    14:00 +2°C° 0 mm 10 m/s 752 mmHg 77%
    15:00 +2°C° 0 mm 9 m/s 752 mmHg 75%
    16:00 +2°C° 0 mm 9 m/s 753 mmHg 78%
    17:00 +1°C° 0 mm 8 m/s 754 mmHg 80%
    18:00 0°C° 0 mm 7 m/s 755 mmHg 83%
    19:00 +1°C° 0 mm 6 m/s 756 mmHg 84%
    20:00 +1°C° 0 mm 6 m/s 757 mmHg 85%
    21:00 0°C° 0 mm 5 m/s 757 mmHg 85%
    22:00 0°C° 0 mm 4 m/s 758 mmHg 84%
    23:00 +1°C° 0 mm 3 m/s 758 mmHg 83%

    28 Februarie, Vineri

    Timp Temperatura Precipitaţii Vânt Presiune Umiditate
    00:00 +2°C° 0 mm 2 m/s 758 mmHg 82%
    01:00 +2°C° 0 mm 2 m/s 758 mmHg 81%
    02:00 +2°C° 0 mm 2 m/s 757 mmHg 80%
    03:00 +2°C° 0 mm 2 m/s 757 mmHg 79%
    04:00 +2°C° 0 mm 3 m/s 756 mmHg 80%
    05:00 +1°C° 0 mm 4 m/s 756 mmHg 82%
    06:00 +1°C° 0 mm 5 m/s 755 mmHg 84%
    07:00 +1°C° 0.5 mm 6 m/s 754 mmHg 88%
    08:00 +1°C° 0.5 mm 8 m/s 753 mmHg 92%
    09:00 +1°C° 0.5 mm 9 m/s 752 mmHg 97%
    10:00 +1°C° 1.1 mm 9 m/s 751 mmHg 96%
    11:00 +1°C° 1.1 mm 9 m/s 751 mmHg 96%
    12:00 +1°C° 1.1 mm 8 m/s 750 mmHg 95%
    13:00 +2°C° 1.3 mm 7 m/s 749 mmHg 96%
    14:00 +3°C° 1.3 mm 6 m/s 748 mmHg 97%
    15:00 +4°C° 1.3 mm 4 m/s 748 mmHg 98%
    16:00 +5°C° 0.7 mm 5 m/s 747 mmHg 98%
    17:00 +6°C° 0.7 mm 5 m/s 746 mmHg 98%
    18:00 +7°C° 0.7 mm 6 m/s 746 mmHg 99%
    19:00 +8°C° 1.5 mm 7 m/s 745 mmHg 98%
    20:00 +8°C° 1.5 mm 7 m/s 745 mmHg 98%
    21:00 +7°C° 1.5 mm 8 m/s 744 mmHg 97%
    22:00 +7°C° 0.1 mm 9 m/s 743 mmHg 95%
    23:00 +7°C° 0.1 mm 9 m/s 742 mmHg 93%

    29 Februarie, Sâmbătă

    Timp Temperatura Precipitaţii Vânt Presiune Umiditate
    00:00 +7°C° 0.1 mm 10 m/s 742 mmHg 91%
    01:00 +7°C° 1 mm 10 m/s 740 mmHg 93%
    02:00 +7°C° 1 mm 11 m/s 738 mmHg 94%
    03:00 +8°C° 1 mm 12 m/s 736 mmHg 95%
    04:00 +7°C° 1.7 mm 12 m/s 735 mmHg 95%
    05:00 +7°C° 1.7 mm 11 m/s 734 mmHg 95%
    06:00 +7°C° 1.7 mm 11 m/s 733 mmHg 94%
    07:00 +6°C° 0.8 mm 11 m/s 734 mmHg 93%
    08:00 +5°C° 0.8 mm 10 m/s 734 mmHg 92%
    09:00 +3°C° 0.8 mm 9 m/s 735 mmHg 90%
    10:00 +2°C° 0.7 mm 10 m/s 735 mmHg 87%
    11:00 +2°C° 0.7 mm 10 m/s 736 mmHg 83%
    12:00 +2°C° 0.7 mm 10 m/s 737 mmHg 80%
    13:00 +2°C° 0.4 mm 11 m/s 737 mmHg 77%
    14:00 +2°C° 0.4 mm 12 m/s 738 mmHg 74%
    15:00 +1°C° 0.4 mm 13 m/s 738 mmHg 71%
    16:00 0°C° 0.3 mm 12 m/s 738 mmHg 72%
    17:00 0°C° 0.3 mm 12 m/s 739 mmHg 74%
    18:00 0°C° 0.3 mm 12 m/s 739 mmHg 75%
    19:00 0°C° 0.4 mm 12 m/s 739 mmHg 77%
    20:00 0°C° 0.4 mm 12 m/s 739 mmHg 78%
    21:00 0°C° 0.4 mm 12 m/s 740 mmHg 80%
    22:00 0°C° 0.4 mm 12 m/s 740 mmHg 79%
    23:00 0°C° 0.4 mm 12 m/s 740 mmHg 78%

    1 Martie, Duminică

    Timp Temperatura Precipitaţii Vânt Presiune Umiditate
    00:00 0°C° 0.4 mm 13 m/s 740 mmHg 78%
    01:00 0°C° 0.4 mm 12 m/s 740 mmHg 80%
    02:00 0°C° 0.4 mm 12 m/s 740 mmHg 82%
    03:00 0°C° 0.4 mm 12 m/s 740 mmHg 84%
    04:00 0°C° 0.3 mm 12 m/s 740 mmHg 82%
    05:00 +1°C° 0.3 mm 11 m/s 740 mmHg 80%
    06:00 +1°C° 0.3 mm 11 m/s 740 mmHg 78%
    07:00 +1°C° 0.2 mm 11 m/s 740 mmHg 77%
    08:00 +2°C° 0.2 mm 11 m/s 740 mmHg 76%
    09:00 +2°C° 0.2 mm 11 m/s 741 mmHg 75%
    10:00 +3°C° 0.3 mm 11 m/s 741 mmHg 73%
    11:00 +3°C° 0.3 mm 11 m/s 741 mmHg 71%
    12:00 +4°C° 0.3 mm 12 m/s 741 mmHg 69%
    13:00 +4°C° 0.3 mm 11 m/s 741 mmHg 70%
    14:00 +4°C° 0.3 mm 11 m/s 741 mmHg 71%
    15:00 +3°C° 0.3 mm 11 m/s 742 mmHg 71%
    16:00 +3°C° 0.1 mm 10 m/s 742 mmHg 74%
    17:00 +2°C° 0.1 mm 8 m/s 742 mmHg 77%
    18:00 +2°C° 0.1 mm 7 m/s 742 mmHg 79%
    19:00 +2°C° 0.1 mm 6 m/s 742 mmHg 82%
    20:00 +2°C° 0.1 mm 6 m/s 742 mmHg 85%
    21:00 +2°C° 0.1 mm 5 m/s 742 mmHg 88%
    22:00 +3°C° 1 mm 4 m/s 742 mmHg 91%
    23:00 +3°C° 1 mm 4 m/s 741 mmHg 94%
    Arată mai mult